Temp
66 66 66 66 66 66 66 66 66 66 66 65 65 65 65 64 64 64 64 65 65 65 66 67 68 68 68 69 69 69 68 68 68 67 67 67 67 67 67 66 66 66 66 65 65 65 65 65 64 64 64 64 64 64 64 64 64 64 64 64 64 64 65 65 65 66 67 67 66
66 66 66 65 65 66 66 66 66 65 65 66 65 64 64 64 64 64 64 64 64 64 65 65 66 66 67 67 67 67 67 66 67 66 66 66 66 66 66 65 65 65 65 65 65 65 64 64 64 63 63 63 63 63 63 63 63 63 63 63 63 64 64 64 64 65 66 66 66
66 66 66 66 65 65 65 64 65 65 65 65 65 64 64 64 63 63 63 64 64 64 64 64 65 65 65 65 65 65 64 64 65 65 64 64 65 65 65 64 64 64 64 64 64 64 64 64 64 63 63 63 63 62 62 63 63 62 62 62 63 62 62 62 63 63 64 64 64
66 66 66 65 65 65 64 64 64 65 65 65 65 64 63 63 63 63 63 64 64 64 64 64 64 64 64 64 63 63 63 62 63 63 63 63 63 63 64 64 64 63 63 64 64 63 64 64 63 63 62 62 62 62 62 62 62 62 62 62 61 61 61 61 61 61 61 62 63
66 66 66 65 65 64 64 64 64 64 64 65 64 64 63 63 63 63 63 63 63 63 63 64 63 63 63 63 63 63 62 62 61 61 62 62 62 62 63 63 63 63 63 63 63 63 63 63 63 62 62 62 62 62 62 62 61 61 61 60 60 60 60 59 60 60 60 60 61
66 66 65 65 64 64 64 64 64 64 64 64 64 63 63 63 63 63 62 63 63 63 64 63 63 63 62 63 62 62 62 61 61 61 61 61 61 62 62 61 62 62 62 62 62 62 62 63 62 62 62 62 62 62 62 62 61 61 60 59 59 59 59 59 59 59 59 59 59
65 65 64 64 64 64 64 64 64 64 64 63 63 63 63 63 63 63 63 63 63 63 63 63 62 62 62 62 62 62 61 61 61 61 61 61 61 61 61 61 61 61 61 62 62 62 62 62 61 61 61 61 61 61 61 61 61 60 59 59 59 59 59 58 58 58 58 59 58
65 64 63 63 63 63 63 63 63 63 63 63 63 63 63 63 63 63 63 63 63 62 62 62 62 62 62 62 62 61 61 61 61 61 61 60 61 61 61 61 61 61 61 61 61 61 61 61 61 61 61 60 60 60 60 61 61 60 59 59 58 58 58 58 58 58 58 58 58
63 63 63 63 63 63 63 62 62 62 62 62 63 63 63 63 63 63 63 62 62 62 62 62 62 62 62 62 62 62 61 61 61 61 61 61 61 61 61 61 61 61 61 61 61 61 61 61 61 61 61 60 60 60 60 60 60 60 59 59 58 58 58 58 58 57 57 57 57
63 63 63 63 63 62 62 62 62 62 62 62 63 63 63 62 62 62 62 61 61 61 61 61 62 62 62 62 62 62 61 61 61 61 61 61 61 61 61 61 61 61 61 61 61 61 61 61 61 61 61 60 60 59 59 60 60 59 59 58 58 58 58 57 57 57 57 57 57
62 63 63 63 63 62 62 62 62 62 62 62 63 63 63 62 62 62 61 61 61 61 61 61 61 61 61 61 61 61 61 61 61 61 61 61 60 60 60 60 60 61 61 61 61 61 61 61 61 61 61 60 59 59 59 59 59 59 58 57 57 57 57 56 57 57 57 57 57
62 62 62 62 62 62 62 61 61 61 62 62 62 63 63 62 62 62 61 61 61 60 60 60 61 60 60 60 60 60 61 61 61 61 61 61 61 61 60 60 60 60 61 61 61 61 61 61 61 61 60 60 59 58 58 58 58 58 57 57 56 56 56 55 56 56 56 56 56
62 62 62 62 62 62 61 61 61 61 61 61 62 62 62 62 62 61 61 61 60 60 60 61 61 61 61 61 61 61 61 61 61 61 61 61 61 61 61 61 61 61 61 61 61 61 61 61 61 61 60 59 58 58 58 58 58 58 57 56 56 55 55 55 55 55 55 56 55
62 62 62 62 62 62 61 61 61 61 61 61 61 62 61 61 61 61 61 61 61 61 61 61 61 62 62 63 62 62 62 62 62 63 63 63 62 62 62 62 62 62 62 62 62 61 61 61 61 60 59 58 58 58 58 58 58 57 57 56 55 55 55 54 55 55 55 55 55
62 62 62 62 62 62 62 61 61 61 61 61 62 62 62 61 61 62 62 62 62 62 63 63 63 63 64 64 64 64 64 64 64 64 63 63 63 63 62 62 62 62 62 62 62 62 61 61 60 60 59 58 58 58 58 58 58 57 57 56 55 55 55 54 54 54 54 54 54
63 63 63 62 62 62 61 61 61 60 61 61 62 63 63 62 63 63 63 64 64 64 64 64 63 63 64 64 64 64 64 64 64 64 63 63 63 62 62 62 62 62 62 62 61 61 61 61 60 60 59 58 58 57 57 57 57 57 57 56 56 56 55 55 54 54 54 54 54
65 64 64 63 63 62 62 61 61 61 61 62 63 63 64 64 64 64 64 64 64 64 64 64 64 63 63 62 63 64 64 64 64 64 63 63 63 62 62 61 61 61 61 61 60 60 60 60 60 59 59 58 58 57 57 57 57 57 57 57 56 56 56 55 55 55 55 55 55
65 65 65 64 64 63 62 62 62 62 63 63 63 64 65 65 65 65 65 65 65 64 64 64 64 63 63 62 62 62 63 63 63 63 63 63 63 62 62 61 61 61 61 60 60 59 59 59 59 59 58 58 57 57 57 57 56 56 56 56 56 56 56 55 55 55 55 55 55
64 65 65 65 65 64 63 63 62 63 63 63 63 64 65 66 66 66 66 65 65 65 64 64 64 63 63 62 62 61 61 62 63 63 63 63 62 62 61 61 61 60 60 60 59 59 59 58 58 58 57 57 56 56 56 55 55 54 54 54 54 54 54 54 54 55 55 55 55
62 63 63 64 65 65 65 65 64 64 63 63 63 63 64 65 66 66 66 66 66 65 65 64 63 63 62 62 62 61 61 61 62 62 62 62 62 61 61 60 60 60 60 59 59 59 58 58 58 57 57 56 55 55 54 54 53 53 52 52 52 52 53 53 53 53 54 54 54
60 60 61 61 62 63 64 65 65 64 64 63 63 63 64 65 66 66 66 66 66 66 65 64 63 62 62 61 61 61 61 61 61 62 62 62 62 61 61 60 60 59 59 59 58 58 58 58 58 57 57 56 55 55 54 53 53 52 52 51 51 51 51 52 52 53 53 53 53
58 59 59 60 60 61 62 62 63 63 62 62 62 62 62 63 64 65 66 66 66 65 64 64 63 62 61 61 61 61 61 60 60 61 61 61 61 60 60 59 59 58 58 57 57 57 57 57 57 57 57 56 56 55 55 54 54 53 52 51 51 51 51 51 52 52 53 53 53
58 58 59 59 60 60 60 61 61 61 61 61 60 60 60 60 60 61 62 62 63 63 63 63 62 62 61 61 61 60 60 59 59 59 59 59 59 58 58 57 57 56 56 56 56 56 56 56 56 57 57 57 56 56 56 55 55 54 53 52 52 51 51 51 52 52 53 53 54
58 58 59 59 60 60 60 60 60 60 60 61 61 60 59 59 58 58 58 58 59 60 61 62 62 61 61 61 60 60 59 58 58 57 57 57 57 56 56 55 55 55 55 55 55 55 55 55 55 56 56 56 56 56 56 56 56 55 54 53 52 52 52 52 52 53 53 53 54
58 58 58 59 59 59 59 59 59 59 60 60 60 60 59 59 58 57 56 56 57 58 59 60 60 60 60 60 60 59 59 58 57 56 56 55 55 54 54 54 54 54 54 54 53 53 53 54 55 55 55 56 55 56 56 56 56 55 55 54 53 52 52 52 52 52 53 53 53
57 57 58 58 58 58 58 58 58 58 58 59 59 59 59 58 58 57 56 56 56 57 57 58 59 59 58 58 58 58 58 57 57 56 55 54 54 53 53 53 53 53 53 52 52 52 53 54 54 54 55 55 55 55 55 55 55 55 55 54 53 53 52 51 51 52 52 53 53
55 56 57 58 58 58 58 58 58 58 58 57 57 57 57 58 58 57 56 56 56 56 55 55 56 56 56 56 57 57 56 56 56 55 55 54 53 52 52 52 52 53 52 52 52 52 53 53 53 54 54 54 54 54 54 54 54 54 54 54 53 53 52 51 51 51 51 52 52
54 54 55 56 57 57 57 57 57 57 57 57 56 56 57 57 57 56 56 55 55 55 54 53 53 53 53 54 54 54 54 54 54 54 54 53 53 52 52 52 52 52 52 51 51 52 53 53 53 53 52 52 52 53 53 54 54 53 52 52 52 52 51 50 50 50 50 51 51
52 53 53 54 55 56 57 57 56 56 56 56 56 56 56 56 56 56 56 56 55 54 52 52 51 51 51 51 52 52 52 52 52 52 52 52 52 52 51 51 51 51 51 51 51 52 52 52 52 52 51 51 51 51 52 52 52 52 51 51 51 50 50 49 49 49 49 50 50
51 51 51 51 53 54 55 56 56 56 56 56 55 55 55 55 55 55 55 55 54 53 52 52 51 50 50 50 51 50 50 50 51 51 51 51 51 51 51 51 51 51 50 51 51 52 52 51 51 51 51 51 50 50 50 50 50 49 49 49 50 50 49 49 49 49 49 49 49
50 50 50 50 51 52 54 55 56 56 55 55 55 54 54 53 53 54 54 53 53 52 52 51 50 50 50 50 50 50 50 50 50 51 51 51 51 51 51 51 51 50 50 51 51 51 51 51 50 50 50 50 49 49 48 49 48 47 48 48 49 49 48 48 49 49 49 50 49
50 50 49 49 50 51 52 54 54 54 54 54 53 53 52 51 52 52 53 53 53 52 51 50 50 50 50 50 50 50 50 50 50 50 51 51 51 51 51 50 50 50 50 50 51 51 51 50 50 50 49 49 49 48 47 47 46 47 47 48 48 48 48 48 48 49 49 50 50
50 49 49 48 49 49 51 52 52 52 52 51 51 51 50 50 50 51 51 52 52 51 51 50 50 50 49 49 49 49 49 49 50 50 50 51 51 51 50 50 49 49 49 50 50 50 50 50 49 49 49 49 48 47 46 46 46 46 47 47 47 47 47 48 48 48 49 50 50
50 49 49 48 48 49 49 50 50 51 50 50 49 49 49 50 50 50 50 51 51 51 51 51 50 50 50 50 50 49 49 50 50 50 50 50 50 50 50 49 49 49 49 50 50 50 49 49 49 49 48 48 47 46 47 46 46 46 46 46 46 46 46 46 47 48 49 49 50
49 49 48 48 48 48 48 49 49 49 49 49 49 49 49 49 50 50 50 50 50 50 50 50 50 50 50 50 50 50 50 50 50 50 50 50 50 49 49 48 49 49 49 49 49 49 49 49 48 48 48 47 46 46 46 46 46 46 46 46 46 46 46 46 47 47 48 49 49
49 49 48 48 48 48 48 48 48 49 49 48 48 49 49 49 50 50 50 49 49 49 49 49 50 50 49 49 50 50 50 50 50 50 49 49 49 48 48 47 48 48 49 49 49 49 49 48 48 48 47 46 46 46 46 46 46 46 46 46 46 46 46 46 46 47 47 48 48
48 48 48 48 48 48 48 48 48 48 48 48 48 48 49 49 49 50 50 49 48 48 48 48 49 49 49 49 49 49 49 50 50 50 49 49 48 48 47 47 47 47 48 49 48 48 48 48 48 48 47 46 46 46 46 46 45 46 46 46 46 46 46 46 46 46 47 47 47
47 47 47 48 48 48 48 48 48 48 48 48 48 48 49 49 49 49 49 48 48 48 48 48 48 48 48 48 48 48 49 50 50 49 49 48 48 48 47 46 46 46 47 48 48 48 48 48 48 48 47 46 46 46 46 45 45 45 45 45 46 46 46 46 46 45 46 46 45
46 46 47 47 47 48 48 47 47 47 48 48 48 48 49 49 49 49 49 48 48 47 47 47 47 47 47 48 47 47 47 48 49 49 49 49 48 48 47 46 46 46 47 47 47 48 48 48 48 48 47 47 46 46 46 45 45 45 45 45 45 45 45 45 45 44 44 45 43
46 46 46 47 47 47 47 47 47 47 47 48 48 48 48 48 49 49 49 48 47 47 47 47 47 47 47 47 46 45 45 46 47 48 48 48 48 47 47 46 46 46 46 47 47 47 47 48 48 48 47 47 46 46 46 45 45 44 44 45 45 44 44 44 44 44 43 44 43
45 45 46 46 47 47 47 47 47 47 47 47 47 48 48 49 49 49 49 47 47 46 46 46 47 47 47 46 46 45 44 45 46 47 47 47 47 47 46 47 46 45 46 46 46 47 47 47 47 47 47 47 47 47 47 45 44 44 44 44 44 44 43 43 43 43 43 43 42
MSLP
1010.31 1010.27 1010.23 1010.23 1010.27 1010.43 1010.67 1010.91 1011.15 1011.27 1011.39 1011.55 1011.59 1011.71 1011.83 1011.95 1012.03 1012.11 1012.15 1012.15 1012.11 1012.03 1011.95 1011.83 1011.75 1011.63 1011.51 1011.39 1011.39 1011.47 1011.71 1011.87 1012.15 1012.35 1012.47 1012.51 1012.55 1012.59 1012.67 1012.83 1012.99 1013.11 1013.19 1013.31 1013.47 1013.59 1013.75 1013.87 1013.91 1013.87 1013.87 1013.99 1014.19 1014.47 1014.75 1015.03 1015.27 1015.31 1015.31 1015.27 1015.19 1015.07 1014.87 1014.63 1014.59 1014.47 1014.31 1014.31 1014.35
1010.11 1010.03 1010.03 1010.07 1010.23 1010.51 1010.87 1011.15 1011.31 1011.43 1011.47 1011.55 1011.59 1011.71 1011.75 1011.83 1011.91 1011.95 1011.95 1011.95 1011.91 1011.87 1011.87 1011.87 1011.83 1011.75 1011.67 1011.55 1011.43 1011.43 1011.59 1011.79 1012.03 1012.19 1012.35 1012.43 1012.43 1012.43 1012.47 1012.59 1012.71 1012.83 1012.95 1013.07 1013.19 1013.31 1013.43 1013.47 1013.47 1013.43 1013.47 1013.59 1013.99 1014.31 1014.63 1014.91 1015.15 1015.23 1015.27 1015.23 1015.19 1015.03 1014.83 1014.67 1014.59 1014.47 1014.35 1014.35 1014.31
1010.07 1009.91 1009.91 1010.11 1010.43 1010.71 1010.95 1011.19 1011.31 1011.35 1011.39 1011.43 1011.47 1011.59 1011.63 1011.67 1011.75 1011.83 1011.87 1011.87 1011.87 1011.87 1011.87 1011.87 1011.87 1011.87 1011.83 1011.75 1011.59 1011.47 1011.55 1011.75 1011.95 1012.19 1012.31 1012.43 1012.47 1012.47 1012.47 1012.51 1012.55 1012.59 1012.71 1012.83 1012.91 1012.99 1013.03 1013.03 1013.03 1013.03 1013.03 1013.23 1013.71 1014.19 1014.59 1014.91 1015.03 1015.19 1015.19 1015.19 1015.19 1015.07 1014.95 1014.79 1014.63 1014.47 1014.35 1014.43 1014.39
1010.03 1009.99 1010.03 1010.19 1010.39 1010.63 1010.83 1010.99 1011.11 1011.19 1011.23 1011.31 1011.35 1011.39 1011.47 1011.55 1011.75 1011.83 1011.87 1011.87 1011.87 1011.87 1011.83 1011.79 1011.75 1011.75 1011.75 1011.75 1011.63 1011.59 1011.59 1011.75 1011.91 1012.11 1012.27 1012.43 1012.55 1012.63 1012.67 1012.63 1012.55 1012.51 1012.51 1012.51 1012.55 1012.59 1012.59 1012.59 1012.63 1012.63 1012.67 1012.87 1013.47 1014.07 1014.55 1014.91 1015.03 1015.11 1015.15 1015.15 1015.19 1015.15 1015.07 1014.99 1014.87 1014.63 1014.47 1014.39 1014.47
1010.03 1010.03 1010.03 1010.19 1010.35 1010.55 1010.71 1010.83 1010.91 1010.99 1011.03 1011.15 1011.23 1011.31 1011.35 1011.47 1011.71 1011.83 1011.83 1011.75 1011.75 1011.75 1011.75 1011.71 1011.59 1011.59 1011.59 1011.59 1011.59 1011.55 1011.59 1011.75 1011.87 1012.03 1012.19 1012.39 1012.59 1012.79 1012.91 1012.87 1012.75 1012.59 1012.43 1012.31 1012.23 1012.19 1012.19 1012.19 1012.23 1012.23 1012.27 1012.51 1013.19 1013.95 1014.51 1014.87 1015.03 1015.11 1015.11 1015.11 1015.11 1015.15 1015.19 1015.11 1015.03 1014.79 1014.59 1014.47 1014.59
1009.95 1009.99 1010.03 1010.19 1010.31 1010.47 1010.59 1010.75 1010.83 1010.91 1010.99 1011.07 1011.15 1011.19 1011.23 1011.35 1011.47 1011.59 1011.67 1011.71 1011.63 1011.59 1011.63 1011.63 1011.59 1011.55 1011.47 1011.47 1011.51 1011.55 1011.59 1011.63 1011.75 1011.87 1012.03 1012.27 1012.59 1012.79 1012.91 1012.95 1012.91 1012.75 1012.51 1012.27 1012.11 1012.03 1012.03 1011.95 1011.83 1011.71 1011.75 1012.19 1013.03 1013.79 1014.35 1014.79 1014.99 1015.07 1015.07 1015.11 1015.07 1015.15 1015.19 1015.23 1015.11 1014.91 1014.75 1014.71 1014.79
1009.87 1009.95 1010.03 1010.19 1010.27 1010.39 1010.51 1010.67 1010.75 1010.87 1010.91 1011.03 1011.03 1011.07 1011.15 1011.19 1011.23 1011.31 1011.43 1011.47 1011.47 1011.47 1011.55 1011.59 1011.59 1011.55 1011.47 1011.39 1011.47 1011.47 1011.51 1011.51 1011.47 1011.51 1011.71 1012.03 1012.31 1012.59 1012.75 1012.79 1012.87 1012.75 1012.51 1012.31 1012.23 1012.19 1012.15 1011.95 1011.55 1011.23 1011.27 1011.87 1012.91 1013.67 1014.19 1014.55 1014.75 1014.91 1014.99 1015.03 1015.03 1015.07 1015.19 1015.23 1015.19 1015.03 1014.91 1014.83 1014.87
1009.75 1009.87 1009.99 1010.11 1010.19 1010.35 1010.47 1010.63 1010.75 1010.87 1010.91 1010.99 1010.95 1010.99 1011.03 1011.03 1011.11 1011.15 1011.19 1011.19 1011.19 1011.27 1011.43 1011.51 1011.55 1011.51 1011.47 1011.31 1011.31 1011.31 1011.31 1011.27 1011.15 1011.19 1011.39 1011.75 1011.99 1012.27 1012.51 1012.67 1012.75 1012.71 1012.55 1012.39 1012.35 1012.31 1012.23 1011.95 1011.47 1011.03 1011.03 1011.75 1012.75 1013.51 1013.95 1014.23 1014.47 1014.59 1014.75 1014.83 1014.91 1015.03 1015.07 1015.11 1015.15 1015.03 1014.91 1014.83 1014.83
1009.83 1009.91 1010.03 1010.19 1010.31 1010.39 1010.47 1010.55 1010.67 1010.83 1010.95 1010.91 1010.91 1010.87 1010.91 1010.91 1010.95 1010.99 1010.99 1010.95 1010.95 1011.11 1011.31 1011.39 1011.43 1011.47 1011.43 1011.31 1011.19 1011.15 1011.07 1011.03 1010.91 1010.99 1011.19 1011.51 1011.83 1012.11 1012.39 1012.59 1012.71 1012.67 1012.59 1012.47 1012.43 1012.35 1012.31 1012.11 1011.71 1011.19 1011.15 1011.71 1012.51 1013.19 1013.59 1013.87 1014.11 1014.27 1014.43 1014.59 1014.71 1014.83 1014.91 1014.95 1014.99 1014.91 1014.83 1014.75 1014.79
1010.19 1010.19 1010.19 1010.31 1010.31 1010.35 1010.39 1010.47 1010.59 1010.79 1010.87 1010.83 1010.79 1010.75 1010.79 1010.83 1010.83 1010.83 1010.87 1010.83 1010.87 1011.03 1011.19 1011.27 1011.31 1011.35 1011.35 1011.31 1011.27 1011.19 1011.03 1010.95 1010.95 1011.07 1011.31 1011.59 1011.87 1012.11 1012.31 1012.51 1012.55 1012.55 1012.51 1012.47 1012.47 1012.39 1012.31 1012.19 1011.87 1011.59 1011.47 1011.75 1012.31 1012.91 1013.35 1013.63 1013.87 1014.03 1014.19 1014.39 1014.55 1014.67 1014.75 1014.79 1014.75 1014.75 1014.75 1014.71 1014.75
1010.35 1010.35 1010.31 1010.31 1010.31 1010.35 1010.43 1010.47 1010.59 1010.71 1010.75 1010.75 1010.71 1010.71 1010.71 1010.75 1010.71 1010.71 1010.71 1010.75 1010.79 1010.91 1011.07 1011.19 1011.23 1011.31 1011.31 1011.31 1011.31 1011.27 1011.19 1011.15 1011.15 1011.23 1011.39 1011.55 1011.75 1011.99 1012.15 1012.19 1012.27 1012.31 1012.31 1012.31 1012.31 1012.31 1012.27 1012.19 1011.99 1011.79 1011.75 1011.87 1012.27 1012.75 1013.15 1013.43 1013.67 1013.87 1014.07 1014.27 1014.43 1014.55 1014.63 1014.67 1014.63 1014.59 1014.59 1014.67 1014.75
1010.39 1010.43 1010.43 1010.43 1010.47 1010.51 1010.55 1010.55 1010.59 1010.63 1010.67 1010.67 1010.63 1010.59 1010.63 1010.67 1010.71 1010.67 1010.59 1010.59 1010.67 1010.79 1010.95 1011.03 1011.07 1011.15 1011.19 1011.19 1011.19 1011.15 1011.11 1011.15 1011.19 1011.27 1011.31 1011.39 1011.47 1011.59 1011.75 1011.83 1011.91 1012.03 1012.07 1012.15 1012.19 1012.19 1012.19 1012.11 1011.99 1011.91 1011.95 1012.07 1012.35 1012.67 1012.99 1013.27 1013.55 1013.75 1013.99 1014.19 1014.31 1014.43 1014.55 1014.59 1014.59 1014.59 1014.59 1014.67 1014.75
1010.43 1010.43 1010.43 1010.47 1010.47 1010.55 1010.59 1010.55 1010.55 1010.59 1010.67 1010.67 1010.59 1010.59 1010.59 1010.63 1010.67 1010.67 1010.59 1010.47 1010.47 1010.59 1010.71 1010.75 1010.79 1010.83 1010.87 1010.87 1010.79 1010.79 1010.83 1010.91 1010.95 1011.03 1011.11 1011.15 1011.19 1011.27 1011.39 1011.51 1011.63 1011.75 1011.87 1011.95 1012.03 1012.07 1012.11 1012.03 1012.03 1011.99 1012.03 1012.19 1012.39 1012.59 1012.87 1013.19 1013.43 1013.63 1013.87 1014.03 1014.19 1014.31 1014.47 1014.51 1014.55 1014.55 1014.59 1014.67 1014.75
1010.51 1010.47 1010.47 1010.47 1010.47 1010.47 1010.47 1010.47 1010.47 1010.51 1010.59 1010.59 1010.55 1010.47 1010.55 1010.59 1010.63 1010.63 1010.55 1010.39 1010.31 1010.31 1010.35 1010.39 1010.39 1010.39 1010.43 1010.47 1010.47 1010.51 1010.59 1010.59 1010.67 1010.75 1010.79 1010.87 1010.95 1011.07 1011.19 1011.31 1011.47 1011.59 1011.67 1011.79 1011.87 1011.95 1011.99 1011.99 1012.03 1012.03 1012.11 1012.19 1012.39 1012.59 1012.79 1013.11 1013.31 1013.55 1013.71 1013.87 1014.03 1014.19 1014.31 1014.39 1014.47 1014.55 1014.59 1014.63 1014.75
1010.43 1010.39 1010.35 1010.39 1010.43 1010.43 1010.43 1010.39 1010.39 1010.43 1010.47 1010.47 1010.43 1010.35 1010.39 1010.51 1010.59 1010.55 1010.43 1010.27 1010.19 1010.15 1010.15 1010.15 1010.11 1010.11 1010.15 1010.23 1010.31 1010.43 1010.47 1010.51 1010.55 1010.59 1010.59 1010.67 1010.75 1010.91 1011.03 1011.19 1011.31 1011.47 1011.55 1011.63 1011.79 1011.87 1011.91 1011.95 1012.03 1012.07 1012.19 1012.27 1012.39 1012.55 1012.75 1012.99 1013.23 1013.47 1013.59 1013.75 1013.87 1013.99 1014.15 1014.27 1014.39 1014.47 1014.55 1014.59 1014.63
1010.19 1010.15 1010.15 1010.19 1010.27 1010.31 1010.31 1010.31 1010.31 1010.35 1010.39 1010.35 1010.23 1010.19 1010.19 1010.23 1010.27 1010.27 1010.19 1010.07 1010.03 1010.03 1010.07 1010.11 1010.03 1010.03 1010.03 1010.11 1010.19 1010.31 1010.43 1010.43 1010.47 1010.47 1010.47 1010.55 1010.63 1010.75 1010.91 1011.03 1011.19 1011.31 1011.43 1011.55 1011.71 1011.79 1011.87 1011.91 1011.95 1012.03 1012.15 1012.27 1012.39 1012.55 1012.75 1012.91 1013.11 1013.31 1013.47 1013.59 1013.75 1013.83 1013.95 1014.15 1014.31 1014.39 1014.43 1014.47 1014.51
1010.03 1009.95 1009.91 1009.91 1009.99 1010.03 1010.15 1010.19 1010.19 1010.19 1010.19 1010.19 1010.11 1010.03 1009.95 1009.95 1009.95 1009.95 1009.91 1009.91 1009.91 1009.95 1010.03 1010.03 1010.03 1010.03 1010.03 1010.07 1010.19 1010.27 1010.31 1010.31 1010.31 1010.31 1010.35 1010.43 1010.47 1010.59 1010.75 1010.91 1011.03 1011.19 1011.31 1011.43 1011.59 1011.75 1011.79 1011.87 1011.91 1012.03 1012.11 1012.23 1012.39 1012.51 1012.67 1012.87 1013.03 1013.23 1013.39 1013.51 1013.59 1013.75 1013.87 1014.03 1014.15 1014.23 1014.31 1014.31 1014.39
1009.99 1009.87 1009.79 1009.75 1009.71 1009.79 1009.87 1009.91 1009.95 1009.95 1009.99 1009.95 1009.95 1009.87 1009.79 1009.75 1009.71 1009.71 1009.75 1009.75 1009.83 1009.87 1009.87 1009.95 1009.95 1010.03 1010.03 1010.11 1010.19 1010.23 1010.27 1010.27 1010.27 1010.27 1010.27 1010.31 1010.39 1010.47 1010.59 1010.75 1010.91 1011.07 1011.23 1011.39 1011.55 1011.63 1011.75 1011.87 1011.91 1012.03 1012.11 1012.19 1012.35 1012.47 1012.63 1012.83 1013.03 1013.19 1013.35 1013.47 1013.59 1013.67 1013.75 1013.91 1014.07 1014.15 1014.19 1014.19 1014.27
1009.99 1009.87 1009.75 1009.63 1009.59 1009.59 1009.67 1009.71 1009.75 1009.79 1009.79 1009.79 1009.83 1009.79 1009.67 1009.59 1009.55 1009.55 1009.59 1009.59 1009.67 1009.75 1009.83 1009.87 1009.87 1009.95 1010.03 1010.07 1010.15 1010.23 1010.27 1010.27 1010.27 1010.27 1010.27 1010.31 1010.39 1010.47 1010.59 1010.71 1010.83 1011.03 1011.19 1011.31 1011.47 1011.59 1011.75 1011.83 1011.95 1012.03 1012.11 1012.19 1012.35 1012.51 1012.67 1012.79 1012.99 1013.19 1013.35 1013.47 1013.59 1013.67 1013.79 1013.91 1014.03 1014.15 1014.19 1014.19 1014.19
1010.15 1010.03 1009.87 1009.75 1009.59 1009.51 1009.47 1009.51 1009.59 1009.63 1009.63 1009.67 1009.71 1009.67 1009.59 1009.47 1009.39 1009.39 1009.43 1009.47 1009.51 1009.59 1009.67 1009.75 1009.79 1009.87 1009.95 1010.03 1010.11 1010.19 1010.27 1010.27 1010.31 1010.27 1010.31 1010.31 1010.39 1010.47 1010.55 1010.71 1010.87 1010.99 1011.15 1011.31 1011.43 1011.59 1011.71 1011.83 1011.95 1012.03 1012.15 1012.27 1012.39 1012.55 1012.71 1012.87 1013.03 1013.19 1013.27 1013.35 1013.51 1013.63 1013.79 1013.95 1014.07 1014.19 1014.23 1014.23 1014.31
1010.31 1010.23 1010.11 1009.99 1009.87 1009.75 1009.63 1009.59 1009.55 1009.55 1009.55 1009.55 1009.51 1009.47 1009.43 1009.35 1009.31 1009.27 1009.27 1009.27 1009.31 1009.43 1009.51 1009.59 1009.67 1009.75 1009.87 1009.95 1010.03 1010.15 1010.19 1010.23 1010.27 1010.27 1010.27 1010.31 1010.35 1010.43 1010.51 1010.67 1010.83 1010.99 1011.11 1011.27 1011.43 1011.55 1011.67 1011.79 1011.87 1012.03 1012.19 1012.31 1012.39 1012.55 1012.71 1012.87 1012.99 1013.11 1013.19 1013.31 1013.47 1013.59 1013.75 1013.91 1014.03 1014.19 1014.23 1014.31 1014.35
1010.51 1010.43 1010.31 1010.19 1010.11 1010.03 1009.91 1009.83 1009.75 1009.71 1009.63 1009.59 1009.55 1009.47 1009.43 1009.31 1009.27 1009.19 1009.15 1009.11 1009.19 1009.27 1009.35 1009.47 1009.47 1009.59 1009.71 1009.87 1009.99 1010.03 1010.11 1010.19 1010.23 1010.23 1010.27 1010.27 1010.31 1010.39 1010.47 1010.59 1010.75 1010.95 1011.11 1011.23 1011.39 1011.51 1011.63 1011.75 1011.87 1011.99 1012.11 1012.23 1012.35 1012.47 1012.63 1012.79 1012.91 1013.03 1013.19 1013.27 1013.39 1013.55 1013.75 1013.87 1014.03 1014.11 1014.19 1014.27 1014.35
1010.59 1010.55 1010.47 1010.35 1010.27 1010.19 1010.07 1010.03 1009.91 1009.83 1009.75 1009.67 1009.59 1009.55 1009.51 1009.47 1009.39 1009.35 1009.31 1009.23 1009.19 1009.19 1009.19 1009.23 1009.31 1009.39 1009.51 1009.67 1009.83 1009.95 1010.03 1010.15 1010.19 1010.23 1010.23 1010.27 1010.31 1010.39 1010.47 1010.59 1010.75 1010.91 1011.03 1011.19 1011.31 1011.47 1011.59 1011.75 1011.87 1011.99 1012.07 1012.19 1012.31 1012.43 1012.55 1012.67 1012.75 1012.91 1013.03 1013.19 1013.35 1013.51 1013.67 1013.83 1013.91 1014.03 1014.11 1014.19 1014.31
1010.67 1010.59 1010.51 1010.39 1010.31 1010.19 1010.15 1010.03 1009.99 1009.87 1009.71 1009.63 1009.59 1009.55 1009.55 1009.55 1009.55 1009.55 1009.51 1009.47 1009.35 1009.27 1009.19 1009.19 1009.23 1009.31 1009.35 1009.51 1009.63 1009.79 1009.91 1010.03 1010.11 1010.19 1010.19 1010.27 1010.31 1010.43 1010.51 1010.59 1010.75 1010.83 1010.95 1011.07 1011.19 1011.35 1011.51 1011.71 1011.87 1011.99 1012.07 1012.15 1012.23 1012.35 1012.47 1012.55 1012.67 1012.79 1012.91 1013.03 1013.23 1013.43 1013.59 1013.75 1013.83 1013.91 1014.03 1014.19 1014.31
1010.79 1010.67 1010.55 1010.47 1010.35 1010.27 1010.19 1010.07 1010.03 1009.87 1009.75 1009.63 1009.59 1009.55 1009.51 1009.55 1009.55 1009.59 1009.59 1009.55 1009.47 1009.43 1009.35 1009.31 1009.31 1009.31 1009.35 1009.39 1009.47 1009.59 1009.75 1009.83 1009.91 1010.03 1010.15 1010.23 1010.31 1010.39 1010.47 1010.59 1010.71 1010.79 1010.91 1011.03 1011.15 1011.27 1011.43 1011.59 1011.75 1011.87 1011.99 1012.11 1012.19 1012.31 1012.43 1012.51 1012.59 1012.71 1012.83 1012.95 1013.11 1013.31 1013.47 1013.59 1013.75 1013.87 1013.95 1014.07 1014.19
1010.95 1010.83 1010.67 1010.55 1010.47 1010.35 1010.27 1010.15 1010.03 1009.91 1009.83 1009.75 1009.67 1009.59 1009.55 1009.55 1009.55 1009.55 1009.59 1009.59 1009.51 1009.47 1009.47 1009.47 1009.39 1009.35 1009.31 1009.35 1009.39 1009.47 1009.55 1009.63 1009.75 1009.87 1010.03 1010.15 1010.27 1010.35 1010.47 1010.55 1010.63 1010.75 1010.83 1010.91 1011.03 1011.19 1011.35 1011.55 1011.67 1011.75 1011.87 1012.03 1012.19 1012.31 1012.43 1012.51 1012.59 1012.67 1012.75 1012.91 1013.03 1013.19 1013.31 1013.47 1013.59 1013.75 1013.87 1014.03 1014.19
1011.07 1010.95 1010.83 1010.71 1010.59 1010.47 1010.31 1010.23 1010.15 1010.03 1009.95 1009.87 1009.79 1009.75 1009.63 1009.59 1009.59 1009.55 1009.59 1009.59 1009.55 1009.51 1009.51 1009.51 1009.47 1009.43 1009.35 1009.31 1009.31 1009.39 1009.43 1009.51 1009.59 1009.71 1009.83 1009.99 1010.15 1010.27 1010.39 1010.47 1010.55 1010.63 1010.75 1010.79 1010.91 1011.03 1011.23 1011.47 1011.59 1011.75 1011.83 1011.95 1012.11 1012.23 1012.35 1012.47 1012.59 1012.63 1012.75 1012.91 1012.99 1013.07 1013.19 1013.35 1013.55 1013.71 1013.87 1014.03 1014.19
1011.11 1011.03 1010.91 1010.79 1010.67 1010.51 1010.39 1010.31 1010.23 1010.19 1010.11 1010.03 1009.95 1009.87 1009.79 1009.71 1009.63 1009.59 1009.55 1009.55 1009.55 1009.55 1009.55 1009.55 1009.59 1009.59 1009.51 1009.47 1009.47 1009.43 1009.47 1009.47 1009.59 1009.63 1009.75 1009.87 1009.99 1010.11 1010.23 1010.35 1010.47 1010.55 1010.63 1010.75 1010.79 1010.91 1011.07 1011.31 1011.51 1011.71 1011.87 1011.95 1012.11 1012.23 1012.31 1012.47 1012.55 1012.67 1012.79 1012.91 1012.99 1013.07 1013.19 1013.31 1013.51 1013.67 1013.83 1014.03 1014.19
1011.19 1011.11 1011.03 1010.91 1010.75 1010.59 1010.47 1010.43 1010.31 1010.27 1010.23 1010.19 1010.11 1010.03 1009.95 1009.87 1009.75 1009.63 1009.59 1009.59 1009.59 1009.55 1009.59 1009.63 1009.67 1009.71 1009.67 1009.63 1009.59 1009.59 1009.59 1009.67 1009.67 1009.71 1009.75 1009.87 1009.95 1010.03 1010.15 1010.23 1010.31 1010.47 1010.59 1010.67 1010.71 1010.75 1010.91 1011.19 1011.43 1011.67 1011.87 1012.03 1012.15 1012.27 1012.39 1012.51 1012.59 1012.75 1012.87 1012.95 1013.03 1013.15 1013.27 1013.39 1013.55 1013.71 1013.83 1013.95 1014.15
1011.31 1011.23 1011.19 1011.07 1010.91 1010.75 1010.59 1010.51 1010.47 1010.43 1010.35 1010.31 1010.27 1010.19 1010.11 1009.99 1009.87 1009.75 1009.67 1009.63 1009.63 1009.63 1009.67 1009.71 1009.75 1009.75 1009.75 1009.75 1009.75 1009.75 1009.75 1009.83 1009.87 1009.87 1009.87 1009.91 1009.95 1010.03 1010.07 1010.19 1010.27 1010.43 1010.59 1010.67 1010.67 1010.75 1010.83 1011.03 1011.31 1011.59 1011.83 1012.07 1012.19 1012.31 1012.47 1012.59 1012.71 1012.83 1012.95 1013.03 1013.15 1013.23 1013.35 1013.47 1013.59 1013.71 1013.79 1013.95 1014.11
1011.43 1011.39 1011.31 1011.23 1011.11 1010.95 1010.79 1010.67 1010.59 1010.51 1010.47 1010.47 1010.39 1010.31 1010.23 1010.15 1010.03 1009.87 1009.79 1009.75 1009.75 1009.75 1009.75 1009.79 1009.83 1009.79 1009.79 1009.83 1009.83 1009.87 1009.87 1009.91 1009.95 1009.95 1009.95 1009.99 1009.99 1010.03 1010.11 1010.19 1010.27 1010.43 1010.55 1010.67 1010.71 1010.75 1010.87 1011.03 1011.27 1011.55 1011.79 1012.03 1012.19 1012.35 1012.51 1012.63 1012.75 1012.91 1013.03 1013.15 1013.27 1013.35 1013.47 1013.59 1013.63 1013.75 1013.83 1013.87 1014.03
1011.47 1011.47 1011.43 1011.31 1011.19 1011.07 1010.91 1010.79 1010.71 1010.63 1010.59 1010.55 1010.47 1010.43 1010.35 1010.31 1010.19 1010.07 1009.95 1009.87 1009.79 1009.79 1009.83 1009.83 1009.83 1009.83 1009.83 1009.87 1009.87 1009.87 1009.87 1009.95 1009.95 1009.99 1009.99 1010.03 1010.03 1010.07 1010.15 1010.23 1010.31 1010.47 1010.59 1010.75 1010.79 1010.87 1010.95 1011.11 1011.31 1011.55 1011.75 1012.03 1012.23 1012.39 1012.55 1012.71 1012.87 1012.99 1013.11 1013.19 1013.31 1013.47 1013.59 1013.67 1013.75 1013.75 1013.79 1013.83 1013.91
1011.47 1011.47 1011.39 1011.35 1011.27 1011.15 1011.03 1010.91 1010.83 1010.75 1010.71 1010.67 1010.63 1010.59 1010.47 1010.39 1010.31 1010.19 1010.07 1009.95 1009.87 1009.83 1009.83 1009.79 1009.83 1009.83 1009.83 1009.83 1009.87 1009.87 1009.87 1009.91 1009.95 1009.99 1010.03 1010.03 1010.03 1010.11 1010.19 1010.31 1010.43 1010.55 1010.67 1010.79 1010.91 1010.99 1011.11 1011.27 1011.47 1011.63 1011.83 1012.03 1012.27 1012.47 1012.59 1012.75 1012.91 1013.03 1013.15 1013.31 1013.47 1013.59 1013.67 1013.75 1013.83 1013.83 1013.83 1013.83 1013.87
1011.47 1011.39 1011.35 1011.31 1011.27 1011.19 1011.11 1011.03 1010.91 1010.79 1010.71 1010.71 1010.67 1010.63 1010.59 1010.47 1010.35 1010.27 1010.19 1010.07 1009.99 1009.91 1009.83 1009.79 1009.79 1009.83 1009.83 1009.83 1009.83 1009.87 1009.87 1009.91 1009.95 1010.03 1010.03 1010.07 1010.07 1010.15 1010.23 1010.35 1010.47 1010.59 1010.75 1010.91 1010.99 1011.07 1011.23 1011.39 1011.59 1011.75 1011.95 1012.19 1012.35 1012.51 1012.63 1012.79 1012.95 1013.07 1013.19 1013.39 1013.55 1013.71 1013.79 1013.87 1013.91 1013.91 1013.87 1013.87 1013.95
1011.43 1011.35 1011.31 1011.27 1011.23 1011.19 1011.11 1011.03 1010.91 1010.79 1010.71 1010.67 1010.63 1010.59 1010.59 1010.47 1010.39 1010.31 1010.23 1010.19 1010.11 1010.03 1009.91 1009.87 1009.83 1009.83 1009.83 1009.83 1009.83 1009.87 1009.87 1009.91 1009.95 1010.03 1010.03 1010.11 1010.15 1010.19 1010.27 1010.39 1010.47 1010.63 1010.83 1010.95 1011.03 1011.15 1011.27 1011.39 1011.59 1011.79 1012.03 1012.23 1012.47 1012.59 1012.67 1012.83 1012.99 1013.15 1013.27 1013.43 1013.59 1013.75 1013.87 1013.99 1013.99 1013.99 1013.99 1013.99 1014.03
1011.47 1011.35 1011.27 1011.19 1011.19 1011.15 1011.07 1011.03 1010.91 1010.79 1010.71 1010.63 1010.59 1010.55 1010.51 1010.47 1010.39 1010.31 1010.27 1010.23 1010.23 1010.15 1010.03 1009.91 1009.87 1009.83 1009.83 1009.83 1009.79 1009.83 1009.87 1009.87 1009.95 1010.03 1010.07 1010.15 1010.19 1010.27 1010.31 1010.43 1010.55 1010.71 1010.91 1011.03 1011.11 1011.19 1011.27 1011.39 1011.59 1011.79 1012.03 1012.27 1012.47 1012.63 1012.75 1012.91 1013.07 1013.19 1013.31 1013.47 1013.63 1013.75 1013.87 1013.95 1013.99 1014.03 1014.03 1014.07 1014.11
1011.59 1011.43 1011.27 1011.19 1011.11 1011.07 1011.03 1010.99 1010.91 1010.75 1010.67 1010.59 1010.55 1010.51 1010.47 1010.47 1010.43 1010.35 1010.31 1010.31 1010.27 1010.19 1010.07 1009.99 1009.91 1009.87 1009.83 1009.83 1009.79 1009.79 1009.83 1009.87 1009.91 1009.99 1010.11 1010.19 1010.23 1010.31 1010.39 1010.51 1010.63 1010.79 1010.91 1011.03 1011.07 1011.15 1011.27 1011.39 1011.55 1011.75 1012.03 1012.27 1012.47 1012.67 1012.83 1012.95 1013.11 1013.23 1013.35 1013.47 1013.59 1013.71 1013.79 1013.87 1013.95 1014.03 1014.03 1014.07 1014.11
1011.75 1011.59 1011.35 1011.19 1011.03 1010.99 1010.99 1010.95 1010.87 1010.75 1010.63 1010.59 1010.51 1010.51 1010.47 1010.47 1010.43 1010.35 1010.31 1010.35 1010.31 1010.19 1010.11 1010.03 1009.99 1009.87 1009.83 1009.83 1009.79 1009.83 1009.87 1009.87 1009.87 1009.99 1010.07 1010.19 1010.23 1010.31 1010.43 1010.59 1010.75 1010.91 1010.95 1011.03 1011.07 1011.15 1011.27 1011.43 1011.59 1011.79 1012.03 1012.27 1012.47 1012.67 1012.83 1012.99 1013.11 1013.23 1013.31 1013.43 1013.51 1013.59 1013.71 1013.83 1013.87 1013.95 1014.03 1014.03 1014.07
1011.87 1011.75 1011.51 1011.27 1011.07 1010.95 1010.91 1010.87 1010.83 1010.75 1010.63 1010.59 1010.51 1010.47 1010.47 1010.43 1010.43 1010.35 1010.35 1010.35 1010.31 1010.27 1010.15 1010.07 1010.03 1009.95 1009.87 1009.87 1009.87 1009.87 1009.87 1009.87 1009.91 1009.99 1010.03 1010.15 1010.23 1010.31 1010.43 1010.59 1010.79 1010.91 1010.99 1011.03 1011.07 1011.19 1011.31 1011.47 1011.67 1011.83 1012.03 1012.27 1012.47 1012.63 1012.79 1012.91 1013.03 1013.19 1013.31 1013.35 1013.47 1013.51 1013.59 1013.71 1013.87 1013.91 1013.95 1014.03 1014.07
1011.99 1011.83 1011.63 1011.43 1011.19 1010.99 1010.87 1010.79 1010.75 1010.67 1010.63 1010.59 1010.47 1010.43 1010.43 1010.43 1010.35 1010.35 1010.31 1010.31 1010.31 1010.31 1010.23 1010.15 1010.07 1010.03 1009.99 1009.99 1009.91 1009.91 1009.95 1009.95 1009.99 1009.99 1010.03 1010.15 1010.19 1010.31 1010.47 1010.59 1010.75 1010.91 1011.03 1011.07 1011.19 1011.31 1011.43 1011.55 1011.71 1011.87 1012.03 1012.23 1012.43 1012.59 1012.71 1012.83 1012.99 1013.11 1013.19 1013.27 1013.31 1013.43 1013.51 1013.63 1013.75 1013.87 1013.91 1013.99 1014.15
1012.03 1011.87 1011.71 1011.47 1011.23 1011.03 1010.87 1010.71 1010.59 1010.59 1010.55 1010.51 1010.47 1010.43 1010.39 1010.39 1010.35 1010.31 1010.31 1010.31 1010.31 1010.31 1010.27 1010.19 1010.11 1010.03 1010.03 1010.03 1009.99 1009.99 1009.99 1009.99 1009.99 1010.03 1010.07 1010.15 1010.23 1010.31 1010.47 1010.59 1010.75 1010.91 1011.03 1011.15 1011.23 1011.31 1011.43 1011.55 1011.71 1011.83 1012.03 1012.19 1012.35 1012.47 1012.59 1012.71 1012.87 1012.95 1013.03 1013.07 1013.19 1013.31 1013.43 1013.59 1013.75 1013.79 1013.87 1013.95 1014.07
Wind_Speed
4 3 3 2 1 1 2 2 3 3 3 3 4 4 4 4 4 4 4 4 4 4 5 5 5 4 4 4 7 9 10 10 12 12 12 13 12 13 13 11 11 11 11 11 11 11 10 11 9 7 6 5 6 6 7 7 9 10 11 12 12 12 12 12 12 11 10 9 6
3 3 2 2 2 2 2 3 4 4 4 4 4 4 4 4 4 4 4 4 3 4 4 5 5 5 5 4 4 6 8 9 10 11 11 12 12 12 11 11 11 11 11 11 11 10 8 9 8 7 5 5 4 5 5 5 6 7 9 11 10 9 9 10 12 12 11 8 6
4 2 3 3 4 4 4 4 5 6 6 5 4 4 4 3 3 4 4 4 4 4 5 5 5 6 5 4 4 4 6 7 7 7 7 7 8 9 9 9 10 11 11 10 10 9 8 8 7 6 5 5 4 4 4 4 5 6 8 9 7 6 7 8 10 9 7 4 5
5 4 4 5 6 6 6 5 6 6 6 5 5 4 4 3 4 4 5 5 5 5 6 6 6 6 6 6 6 6 6 6 6 5 4 4 4 6 7 8 10 11 11 11 10 9 8 8 6 5 5 6 5 4 3 3 4 5 5 6 5 5 5 5 5 4 1 2 3
5 4 4 4 5 5 4 4 4 5 5 4 3 3 3 3 4 5 5 4 4 4 5 6 6 6 7 8 8 8 8 8 7 6 5 4 4 4 6 7 8 8 9 9 9 9 8 8 6 5 5 6 5 3 3 3 4 4 4 3 3 2 2 2 2 1 1 2 2
3 2 2 2 3 3 2 2 3 4 4 3 4 4 4 4 4 4 5 4 3 3 4 5 5 5 7 9 9 9 9 9 8 7 6 6 5 5 5 5 5 5 5 5 5 5 6 7 5 5 6 6 5 4 4 5 5 4 3 2 2 2 1 2 1 1 2 3 3
1 0 1 2 2 2 2 2 3 3 3 4 5 5 5 5 5 5 5 4 4 3 2 2 3 4 6 8 8 8 8 8 8 8 8 7 6 5 4 4 4 3 2 2 2 3 3 4 4 5 7 7 5 5 6 7 6 5 5 4 3 3 3 3 2 2 3 4 4
2 1 1 2 2 2 2 3 3 4 4 4 5 6 6 6 6 6 5 4 3 3 2 1 2 3 4 6 7 7 7 7 7 7 7 6 6 5 4 3 4 3 2 2 2 3 2 2 2 4 7 7 5 5 7 9 9 8 7 6 5 4 4 4 3 3 4 5 5
4 4 4 4 4 4 3 3 4 6 7 7 7 6 6 6 6 5 4 4 3 3 2 1 1 2 2 3 4 5 5 6 6 6 6 6 5 5 5 5 6 6 5 4 5 5 4 2 1 3 5 7 6 6 7 9 10 10 9 7 6 6 5 5 5 5 5 5 6
6 6 6 6 6 5 4 3 5 7 8 8 8 7 6 6 6 5 5 4 4 4 3 2 1 1 1 2 2 2 3 4 5 6 6 6 6 7 7 7 6 6 6 6 6 7 7 4 2 2 4 6 7 8 8 9 10 10 9 6 6 7 7 6 6 6 6 5 6
7 7 7 6 5 4 3 3 5 6 8 8 8 7 6 6 6 6 5 5 5 5 4 4 3 3 3 2 2 2 3 3 4 5 7 8 8 9 9 8 7 7 7 7 6 6 6 5 4 4 5 6 7 8 9 9 9 9 9 6 7 7 7 7 6 6 6 6 6
8 8 7 7 6 5 4 4 5 6 7 8 7 7 6 5 6 5 6 7 7 6 6 6 6 6 6 6 6 6 5 6 7 8 9 10 10 10 10 9 9 8 8 8 7 6 5 6 5 5 6 7 7 7 8 10 10 9 9 8 8 8 7 7 6 5 5 6 6
8 8 7 7 7 6 6 6 5 6 7 8 7 6 5 5 5 5 6 7 8 7 8 9 9 10 9 9 9 9 9 9 10 10 11 11 11 10 10 10 10 10 9 8 7 7 6 6 7 7 7 8 7 7 8 10 10 10 9 9 9 8 8 7 6 6 6 6 6
10 9 8 8 7 7 6 6 6 6 7 9 8 6 5 5 6 6 7 8 8 9 9 10 10 11 11 12 11 11 11 11 12 12 12 11 11 10 10 10 10 10 9 8 8 7 7 7 7 7 8 8 8 8 9 10 10 10 10 10 10 9 9 8 8 7 7 8 7
10 10 9 8 8 7 7 6 5 5 6 8 8 7 6 6 7 8 9 9 10 10 10 10 10 10 11 12 12 12 12 12 12 12 12 11 11 10 10 9 10 9 9 8 7 7 8 7 7 7 8 8 9 9 9 10 10 10 10 10 11 10 10 9 9 9 9 9 9
11 11 10 9 9 8 7 7 5 5 6 8 8 8 7 7 8 9 10 11 10 9 9 10 9 10 10 11 11 11 11 11 11 11 11 11 10 10 10 9 9 8 8 8 7 7 7 7 7 7 8 9 9 9 9 10 10 10 10 10 11 11 11 10 10 10 10 10 10
10 11 11 10 10 10 10 8 7 7 8 9 9 9 8 8 8 9 10 11 9 9 10 11 10 9 8 8 9 9 10 10 10 10 10 10 10 10 10 9 8 8 7 7 7 7 7 7 7 7 8 9 9 9 9 10 9 9 10 10 10 10 10 10 10 10 10 10 10
8 10 10 11 11 11 11 11 10 10 10 11 10 9 9 9 9 9 10 10 10 10 11 11 10 9 8 7 7 7 7 9 9 9 9 9 10 9 9 9 8 8 7 7 7 7 7 6 6 7 7 8 8 9 9 9 8 8 8 7 7 7 7 7 7 7 7 8 8
6 7 8 9 10 11 11 12 12 12 12 11 10 10 10 11 10 10 10 10 11 11 12 11 10 9 8 8 8 7 7 7 9 9 9 8 8 8 8 8 8 8 8 8 8 7 7 6 6 6 7 7 8 8 8 8 7 7 6 6 5 5 5 5 4 4 4 5 6
5 5 6 6 8 9 10 11 11 11 11 10 10 11 12 12 12 12 11 11 11 12 12 11 10 9 9 9 9 8 7 6 7 8 8 8 8 8 8 8 8 7 7 7 7 7 7 7 7 7 7 7 8 8 8 7 7 7 7 6 6 6 5 5 4 3 3 3 4
5 6 6 6 6 7 8 9 9 8 8 7 8 10 11 12 13 13 13 13 12 12 12 12 11 11 10 10 10 9 8 6 6 7 7 8 8 8 8 8 8 7 7 7 7 7 7 7 8 8 8 8 8 9 8 8 8 7 7 7 6 6 6 5 5 4 4 4 4
5 6 6 6 6 7 7 7 7 7 6 6 6 6 7 8 9 10 11 12 12 12 12 12 12 12 11 10 10 9 8 6 6 7 7 7 7 7 7 7 7 7 7 7 7 7 7 7 8 8 9 9 9 9 9 9 8 8 8 8 7 7 7 6 6 6 5 5 5
6 6 6 6 6 6 6 7 7 7 6 6 5 5 5 5 5 5 6 7 8 9 10 11 11 11 11 11 10 9 8 7 7 7 6 6 6 6 6 6 7 8 8 7 7 7 7 7 7 8 8 8 9 10 10 10 9 9 9 9 9 8 8 7 7 6 6 6 6
8 7 7 6 7 7 7 7 7 7 7 6 6 5 5 4 4 4 5 5 6 7 8 8 8 9 10 10 10 10 9 9 8 8 7 7 6 6 6 6 7 8 8 7 7 7 7 6 6 7 7 7 8 8 9 9 9 9 9 10 9 9 8 8 7 7 7 6 6
9 8 8 7 8 8 7 7 7 7 7 7 6 6 5 5 4 4 4 5 6 6 7 8 7 7 8 9 10 10 10 10 10 9 8 8 7 7 7 6 6 6 6 6 7 8 8 7 6 6 6 6 7 7 7 8 8 9 9 9 9 9 9 8 8 7 7 6 6
9 9 9 8 8 8 8 8 8 8 7 7 7 6 6 6 5 4 4 5 5 6 6 7 6 6 6 7 9 10 10 10 10 10 10 9 8 8 7 6 6 6 6 6 9 10 10 9 8 7 6 6 6 6 6 7 8 8 8 9 9 9 8 8 8 7 7 6 5
9 9 9 9 9 8 8 8 8 8 8 7 7 7 6 6 5 5 4 4 4 4 3 3 3 3 4 5 7 9 9 9 10 10 11 10 10 9 8 7 6 6 6 9 11 13 12 11 9 7 6 6 6 6 6 6 7 7 7 7 8 8 8 8 7 7 6 6 6
9 9 9 9 9 9 8 8 8 8 8 7 7 7 7 6 6 5 5 4 4 3 2 1 2 2 1 2 4 6 7 7 8 8 9 10 10 10 9 8 7 6 7 11 14 14 14 13 11 9 7 5 5 5 5 5 6 5 5 5 6 6 6 6 6 6 6 6 6
10 10 10 10 10 10 9 8 8 8 8 7 7 7 7 7 6 6 5 5 4 3 2 0 1 1 1 1 2 2 3 4 5 6 7 8 9 9 9 8 7 7 9 13 15 15 15 14 12 11 9 6 5 4 4 4 4 4 3 3 4 4 4 4 5 5 5 6 6
10 10 10 10 10 10 10 9 8 8 7 7 7 7 7 7 7 6 6 5 4 3 2 1 1 1 1 1 1 2 2 3 3 4 6 7 8 8 8 8 7 8 10 14 15 16 15 15 14 12 11 8 6 4 3 3 3 3 3 3 3 3 4 4 5 6 6 6 7
9 9 10 10 10 10 10 9 9 8 8 7 7 7 7 7 7 7 6 5 4 2 2 2 2 3 3 2 2 3 3 3 3 4 5 7 7 8 7 7 7 8 10 15 15 15 15 15 15 14 12 10 7 4 3 4 4 3 3 3 3 4 4 4 5 6 7 8 8
9 9 9 10 10 10 10 10 9 9 8 9 9 8 8 8 7 7 6 5 3 3 2 3 3 4 4 4 4 4 4 4 5 5 5 6 6 7 7 6 7 8 10 15 15 15 15 15 15 14 12 10 7 5 4 4 4 4 4 4 4 4 5 4 5 7 8 9 8
9 9 9 9 10 10 10 10 9 9 8 8 9 8 8 8 7 7 6 5 4 3 3 4 4 4 4 5 5 4 4 5 5 5 5 5 6 6 6 6 6 8 11 15 15 15 15 14 14 13 12 10 7 5 5 5 4 4 4 4 4 4 5 5 5 6 7 8 7
9 9 9 9 10 10 10 10 9 9 8 8 8 8 8 8 8 7 6 5 4 4 4 4 4 4 4 5 4 5 5 5 5 5 5 5 5 6 6 5 5 8 11 15 15 15 15 14 14 13 12 10 6 5 5 5 4 4 4 4 4 5 5 5 6 6 6 7 6
9 9 9 10 10 10 10 10 10 9 9 8 8 8 8 8 8 7 6 5 4 4 4 4 4 4 4 4 4 5 5 5 5 6 6 5 6 6 6 6 6 9 12 15 15 15 15 14 14 13 11 9 5 4 5 5 5 5 5 6 6 6 6 6 6 6 6 6 6
8 9 9 9 10 10 10 10 10 10 9 9 9 8 8 8 8 7 6 5 5 5 5 5 4 4 4 4 5 5 5 6 6 6 6 6 7 7 7 6 7 9 12 14 14 14 14 14 14 13 11 8 5 4 4 4 4 5 6 7 7 8 8 8 7 7 6 6 6
9 9 9 9 9 10 10 10 10 10 10 10 9 9 8 8 7 6 5 4 5 5 5 5 5 5 5 5 5 5 5 6 6 7 7 7 7 7 7 7 7 9 11 13 13 13 13 13 13 12 10 7 5 5 4 4 4 5 6 7 8 8 8 8 7 7 6 6 6
10 10 9 9 9 9 10 10 10 11 11 10 9 9 8 8 7 6 5 3 5 6 6 5 5 5 4 4 4 4 4 5 6 7 7 8 8 8 8 7 7 8 9 11 12 12 13 13 13 12 10 7 6 6 5 5 5 5 6 7 7 8 8 6 6 5 6 6 5
11 10 10 9 9 9 9 9 10 10 10 10 9 9 8 8 7 5 4 4 5 6 6 6 5 5 4 4 3 3 4 4 5 7 8 8 8 8 8 8 7 7 8 10 11 12 13 13 13 13 11 8 7 6 5 5 5 6 6 6 6 6 6 5 5 4 5 5 4
11 11 11 10 10 9 9 9 9 9 9 9 9 9 9 8 7 6 5 4 5 5 5 5 5 5 4 3 3 3 3 4 4 6 7 7 7 7 8 8 8 8 9 10 12 13 13 14 14 14 12 8 7 6 5 5 6 6 6 6 5 5 5 5 4 4 4 5 5
11 11 11 11 10 9 9 9 9 9 8 8 8 8 8 8 7 7 5 4 4 5 5 5 5 5 4 4 3 4 4 4 5 5 5 6 7 7 7 8 8 8 9 10 12 13 14 14 15 15 13 8 7 6 5 5 6 6 7 6 6 5 5 4 4 4 4 5 5
Wind_Direction
195 193 185 179 186 221 249 257 258 258 255 249 238 228 221 221 230 235 239 241 244 251 256 259 262 263 252 220 196 187 185 188 193 196 199 200 199 197 195 194 194 195 197 200 202 204 206 207 205 204 202 202 214 226 237 245 251 255 256 253 248 242 236 232 228 217 202 186 179
212 191 168 155 166 198 222 233 235 235 235 232 225 217 212 216 228 237 242 242 246 251 256 258 258 256 249 230 199 182 179 185 190 194 199 202 201 198 194 191 190 192 194 195 197 198 198 196 193 190 187 185 198 214 226 231 234 242 248 249 249 248 244 239 237 230 220 201 182
246 214 183 182 191 198 205 213 218 221 223 225 219 212 211 219 234 241 242 239 239 240 240 238 231 225 217 204 181 167 167 174 181 187 194 204 206 204 199 192 190 189 189 189 190 189 187 185 183 178 172 166 180 200 217 221 224 233 240 245 249 254 254 249 243 237 226 196 169
236 223 205 198 200 202 203 205 210 213 214 214 210 206 206 213 238 243 239 227 226 228 227 221 209 199 190 181 168 157 152 152 157 164 175 192 210 214 211 204 196 191 186 184 183 180 176 173 171 164 156 151 163 183 204 212 217 224 231 236 247 255 258 257 248 239 195 128 140
228 221 210 200 201 203 205 208 211 212 209 205 200 195 194 205 230 236 232 218 215 220 224 219 204 187 176 171 164 157 151 147 146 150 157 167 189 209 217 216 207 197 188 182 178 172 167 165 160 150 142 137 146 166 191 202 214 222 226 226 233 239 244 248 238 201 120 106 109
234 219 197 184 189 196 209 226 227 222 213 203 200 195 189 186 199 211 218 216 205 209 219 223 209 189 176 173 173 168 160 153 151 151 153 160 172 188 204 217 218 211 196 181 173 166 164 163 156 141 129 123 136 161 186 199 212 217 216 208 201 191 187 197 201 173 135 122 117
281 200 166 171 176 195 225 244 239 231 221 212 206 201 196 189 189 196 202 200 187 182 190 210 209 198 188 183 190 190 181 162 153 149 150 154 165 178 195 213 219 214 193 165 173 181 183 177 156 133 121 117 131 162 182 191 200 203 201 196 188 181 183 194 198 185 158 146 142
289 254 207 194 201 220 237 251 255 250 242 229 215 207 200 194 192 191 188 179 162 152 154 202 215 211 205 198 199 195 185 162 149 145 145 147 153 165 188 219 233 234 222 189 201 213 221 219 158 128 123 123 139 164 181 187 194 197 196 194 191 189 187 188 190 183 169 156 153
280 259 238 227 225 225 233 249 260 258 251 239 223 210 200 194 191 186 178 159 139 131 133 165 229 238 234 223 201 187 175 159 148 145 146 151 162 181 204 227 239 244 246 242 239 239 241 249 204 136 132 135 149 166 179 186 191 193 193 191 190 189 187 185 182 177 167 159 156
275 260 245 233 227 222 223 237 253 254 250 239 224 211 200 192 186 177 163 142 130 129 137 154 173 218 251 259 239 197 174 159 152 153 159 167 180 193 203 213 219 225 230 233 237 238 238 238 221 166 145 143 155 166 177 185 189 190 190 187 185 185 185 183 177 170 164 160 159
283 273 263 253 241 235 233 238 247 249 248 240 227 215 204 197 187 175 158 142 140 147 159 170 175 185 199 217 224 215 198 184 179 178 179 182 188 194 198 202 205 209 213 215 219 223 226 227 217 188 164 151 159 168 176 183 186 187 186 182 180 180 181 181 174 166 161 162 161
287 281 274 269 262 257 254 249 246 248 249 246 234 224 215 213 200 182 163 152 156 165 177 184 186 190 194 198 201 202 203 203 200 197 195 194 195 196 196 198 201 204 208 211 210 212 215 217 209 193 174 161 163 169 176 181 184 185 183 180 178 177 177 177 171 165 161 162 161
284 281 275 271 263 257 252 247 244 245 248 248 238 232 230 238 227 208 185 170 173 181 191 194 194 195 198 200 201 200 200 198 197 197 198 200 200 199 199 201 204 206 208 209 208 208 210 211 205 193 180 168 167 170 175 180 183 184 183 179 178 177 176 175 171 167 163 162 160
276 276 275 272 265 256 247 242 240 241 242 241 234 231 237 255 247 231 210 194 192 196 200 201 200 201 203 204 205 205 204 203 200 201 201 202 201 202 204 208 210 210 210 210 208 208 207 206 201 192 181 173 171 172 175 179 183 184 182 180 179 178 177 175 172 170 167 165 162
257 259 262 265 262 256 248 242 240 241 241 237 229 226 230 248 245 235 222 211 208 208 209 209 208 208 208 208 209 210 211 210 209 207 206 204 203 204 206 210 212 212 210 208 208 207 206 203 198 190 182 177 175 175 176 180 183 183 182 181 180 179 177 176 175 174 173 169 165
243 244 245 247 249 248 246 241 240 243 244 241 233 228 227 233 233 228 222 218 216 217 218 219 216 213 210 211 213 214 216 217 215 213 210 207 205 205 205 206 206 205 204 202 203 204 204 203 196 189 183 179 178 177 178 181 183 183 183 183 182 180 178 177 178 179 178 174 169
245 242 240 237 238 239 239 237 237 239 241 241 238 235 232 229 227 225 222 221 221 223 224 225 221 216 211 210 213 217 219 220 218 215 212 208 205 203 200 197 195 195 195 196 198 201 202 202 195 187 181 179 178 178 179 180 182 183 182 183 182 180 177 177 180 182 182 179 174
252 248 245 241 236 235 236 236 237 238 239 241 242 242 238 234 230 227 225 223 224 226 226 227 223 218 213 211 213 217 220 220 219 216 212 207 203 198 193 188 186 187 190 193 196 198 199 197 191 184 179 176 176 175 176 176 176 176 175 175 173 171 170 173 181 185 186 184 177
271 264 257 251 244 239 236 234 235 236 239 242 246 247 246 241 236 232 229 226 226 226 227 227 224 220 216 214 214 214 217 219 218 214 210 204 198 192 186 182 182 184 188 192 194 194 194 191 186 180 175 172 171 169 168 166 164 160 156 152 149 149 152 159 170 180 184 181 170
314 304 292 281 269 259 250 243 240 238 237 238 240 241 242 241 238 235 232 230 228 227 227 227 224 220 217 215 213 211 210 213 212 209 205 199 193 188 183 180 181 184 187 190 190 189 187 185 182 178 174 169 166 163 160 158 154 149 145 139 138 138 139 142 149 156 159 159 152
332 327 320 313 302 292 282 272 264 258 253 248 243 240 239 238 237 236 234 233 231 229 227 225 223 220 218 216 213 209 206 205 205 203 200 196 191 186 182 180 181 183 185 187 186 185 183 182 181 178 174 170 167 164 161 159 155 151 146 143 141 139 138 140 147 151 152 150 150
334 328 322 316 310 304 298 293 289 287 284 278 269 262 257 253 248 245 242 240 236 231 226 223 221 219 216 213 210 207 203 200 200 198 195 192 187 183 179 177 179 181 183 184 183 181 181 182 182 179 175 173 171 169 166 165 162 157 153 150 147 144 144 149 154 157 157 157 158
334 327 320 313 309 304 300 296 293 290 285 280 277 280 285 289 290 285 278 267 253 240 230 223 220 216 212 209 206 203 199 196 197 195 191 186 182 177 174 173 177 180 183 183 180 178 177 179 181 179 177 175 174 173 171 170 167 163 160 157 154 152 153 158 162 164 165 167 169
334 329 323 316 313 309 304 301 297 292 286 279 274 276 282 295 308 314 311 303 285 264 248 236 226 216 210 204 201 198 195 192 191 190 186 182 177 173 172 173 179 182 184 182 178 175 173 174 177 178 177 176 175 174 175 174 171 168 165 162 160 160 161 165 167 169 171 175 178
332 329 324 321 318 315 311 307 304 301 296 292 287 283 281 282 288 295 299 297 289 279 270 261 247 229 213 203 198 195 192 189 187 185 182 179 175 173 172 176 181 183 182 178 172 170 170 171 173 175 175 175 174 174 175 175 174 172 169 166 165 165 166 169 171 173 176 179 182
331 327 324 322 319 316 313 310 308 306 305 304 301 295 288 283 281 284 286 287 286 283 280 275 262 245 223 205 198 193 190 188 186 183 181 178 175 175 175 179 182 182 180 173 169 168 169 170 170 171 171 172 171 173 175 177 176 175 173 170 169 169 170 171 174 177 180 180 183
333 329 326 322 319 316 313 312 310 308 307 305 303 299 295 289 284 282 280 278 280 285 293 302 289 266 235 211 200 195 191 188 186 183 181 178 177 178 179 182 183 183 179 172 169 168 168 168 168 166 165 166 168 171 173 175 177 177 175 173 174 174 174 172 174 176 179 177 179
339 334 329 325 320 317 315 314 312 310 307 306 303 300 295 290 283 277 273 270 268 273 291 331 348 339 294 229 206 198 192 188 185 183 181 179 179 180 181 183 184 183 178 172 169 168 167 165 163 159 156 152 159 164 167 169 171 171 170 172 175 173 171 168 168 171 173 175 174
343 338 333 328 323 320 317 316 314 312 310 307 304 299 294 288 282 276 270 264 255 248 241 251 17 7 338 265 219 200 190 186 184 182 181 181 181 182 182 182 182 179 175 173 171 168 164 160 157 154 151 147 150 154 158 160 161 160 159 166 168 164 162 160 163 167 170 171 172
345 340 334 328 323 319 317 316 316 314 312 309 304 299 294 288 282 277 271 264 254 242 226 199 177 198 217 213 197 188 186 185 184 183 183 184 185 185 183 181 178 175 173 174 172 168 163 157 155 152 150 147 145 144 144 147 143 144 149 159 160 161 161 165 169 171 171 171 170
345 340 334 327 321 317 315 314 315 315 314 311 306 301 296 290 284 279 273 266 256 241 219 201 201 205 205 197 191 189 188 184 186 189 190 189 188 185 182 178 173 170 171 175 172 167 161 156 153 151 149 147 143 139 136 135 135 140 148 161 164 166 168 173 178 179 178 175 173
346 340 334 328 322 318 314 313 314 315 315 312 308 304 298 292 287 283 279 274 263 245 223 213 210 209 206 199 197 194 191 187 191 193 193 191 187 182 177 171 166 165 168 172 169 164 158 154 151 149 147 144 138 133 130 130 133 141 152 162 167 171 174 180 185 186 185 180 177
346 341 336 330 324 319 315 312 311 311 311 309 307 303 299 293 288 284 280 278 269 252 235 224 218 215 210 204 200 196 193 192 193 192 191 187 180 173 167 162 158 159 162 167 164 159 155 152 150 148 145 140 133 128 129 128 131 141 152 161 169 174 180 185 191 192 191 187 183
346 341 336 330 325 321 316 312 309 306 304 301 299 297 294 291 286 282 279 276 272 263 250 237 229 222 216 209 203 198 194 194 192 189 184 177 168 162 157 153 150 154 158 162 159 156 153 151 149 147 143 137 129 128 133 133 139 150 161 164 171 178 185 192 197 198 196 192 189
344 340 335 330 325 321 317 313 308 305 301 297 295 293 290 288 285 281 278 275 274 268 259 249 240 230 222 215 207 201 196 194 190 184 177 166 160 155 151 146 144 150 156 160 157 155 153 151 150 147 144 136 131 134 141 142 153 165 173 174 178 182 187 193 198 199 198 196 194
338 337 333 329 325 321 317 314 309 305 301 296 294 292 290 287 285 282 278 274 269 264 259 252 244 233 224 217 211 204 197 193 188 182 172 162 158 154 149 143 144 152 157 160 157 155 153 152 150 147 144 137 138 145 152 155 166 177 183 184 185 186 188 192 195 196 196 195 196
331 330 329 327 324 320 317 313 309 305 301 296 294 291 290 288 285 282 277 270 263 257 254 249 242 233 225 217 211 204 197 193 186 179 172 166 162 157 152 147 150 156 160 162 159 156 155 154 152 150 147 143 149 157 164 168 176 185 189 191 191 190 189 190 192 193 194 194 194
324 323 322 322 320 318 315 312 308 304 300 296 293 291 289 287 284 280 273 263 258 254 251 245 239 233 227 218 212 203 197 194 186 179 174 172 169 164 159 155 157 160 164 164 161 159 158 159 158 156 155 154 160 166 172 176 181 187 191 194 193 191 188 186 186 189 192 192 189
319 317 315 315 314 313 311 308 304 301 298 295 292 289 286 283 280 276 268 256 255 254 252 246 240 234 227 217 208 199 194 194 185 181 178 177 175 170 164 160 161 164 167 168 165 163 164 166 166 165 164 162 166 172 176 178 183 187 190 194 193 189 185 181 180 184 188 187 179
314 311 310 308 308 308 306 303 300 297 294 291 289 287 285 282 279 274 266 255 252 252 252 249 241 234 225 213 202 194 190 191 185 183 181 179 175 170 165 163 163 166 170 173 171 170 171 173 174 173 172 169 173 176 179 180 183 186 189 193 190 186 181 178 179 182 184 181 177
309 308 306 303 302 302 300 298 296 293 289 286 284 283 283 282 279 275 268 255 247 247 249 250 243 233 222 209 200 193 191 192 188 185 182 178 172 168 165 165 165 168 173 177 178 177 178 179 180 180 179 176 178 181 182 180 184 188 190 192 189 184 179 178 182 185 186 181 180